Port Heiden, AK

5:09 PM AKDT on July 20, 2017 (GMT -0800)
Port Heiden

Weather History for PAPH - January, 2012

Change the Weather History Date:

Monday, January 2, 2012

  Actual Average Record
Temperature  
Mean Temperature 16 °F -  
Max Temperature 24 °F 26 °F 42 °F (2005)
Min Temperature 8 °F 14 °F -11 °F (2000)
Degree Days  
Heating Degree Days 49    
Moisture  
Dew Point 7 °F    
Average Humidity 71    
Maximum Humidity 86    
Minimum Humidity 62    
Precipitation  
Precipitation 0.00 in - - ()
Sea Level Pressure  
Sea Level Pressure 29.56 in    
Wind  
Wind Speed 18 mph (WNW)    
Max Wind Speed 23 mph    
Max Gust Speed 30 mph    
Visibility 6 miles    
Events      
Averages and records for this station are not official NWS values.
T = Trace of Precipitation, MM = Missing Value Source: NWS Daily Summary

Daily Weather History Graph

Daily Weather History Graph

Search for Another Location

Airport or City:

Trip Planner

Search our weather history database for the weather conditions in past years. The results will help you decide how hot, cold, wet, or windy it might be!

Date:

Astronomy

Jan. 02, 2012 Rise Set
Actual Time 10:11 AM AKST 5:05 PM AKST
Civil Twilight 9:23 AM AKST 5:53 PM AKST
Nautical Twilight 8:33 AM AKST 6:44 PM AKST
Astronomical Twilight 7:46 AM AKST 7:30 PM AKST
Moon 12:57 PM AKST (1/2) 3:41 AM AKST (1/2)
Length of Visible Light 8h 30m
Length of Day
6h 53m
Waxing Gibbous, 65% of the Moon is Illuminated
Jan 2
Waxing Gibbous
Jan 8
Full
Jan 16
Last Quarter
Jan 22
New
Jan 30
First Quarter

Hourly Weather History & Observations

Time (AKST) Temp. Windchill Dew Point Humidity Pressure Visibility Wind Dir Wind Speed Gust Speed Precip Events Conditions
12:16 AM 24.8 °F 9.6 °F 19.4 °F 80% 29.32 in 1.2 mi SW 23.0 mph - N/A   Overcast
12:36 AM 24.8 °F 10.0 °F 19.4 °F 80% 29.31 in 1.0 mi West 21.9 mph 29.9 mph N/A   Overcast
12:56 AM 23.0 °F 11.7 °F 19.4 °F 86% 29.34 in 4.0 mi WNW 11.5 mph - N/A   Overcast
1:16 AM 23.0 °F 8.0 °F 15.8 °F 74% 29.35 in 10.0 mi NW 20.7 mph - N/A   Mostly Cloudy
1:36 AM 23.0 °F 8.0 °F 15.8 °F 74% 29.38 in 4.0 mi NNW 20.7 mph 27.6 mph N/A   Overcast
1:56 AM 21.2 °F 5.2 °F 12.2 °F 68% 29.40 in 3.0 mi NNW 21.9 mph 26.5 mph N/A   Overcast
2:16 AM 21.2 °F 6.4 °F 12.2 °F 68% 29.42 in 8.0 mi NNW 18.4 mph - N/A   Overcast
2:36 AM 21.2 °F 8.9 °F 12.2 °F 68% 29.43 in 10.0 mi NW 12.7 mph - N/A   Overcast
2:56 AM 21.2 °F 6.0 °F 12.2 °F 68% 29.44 in 10.0 mi NW 19.6 mph 23.0 mph N/A   Overcast
3:16 AM 21.2 °F 9.5 °F 14.0 °F 74% 29.45 in 7.0 mi NW 11.5 mph - N/A   Overcast
3:56 AM 21.2 °F 6.4 °F 14.0 °F 74% 29.47 in 5.0 mi WNW 18.4 mph - N/A   Overcast
4:16 AM 19.4 °F 3.2 °F 12.2 °F 74% 29.47 in 10.0 mi WNW 20.7 mph - N/A   Overcast
4:36 AM 19.4 °F 5.0 °F 10.4 °F 68% 29.48 in 10.0 mi West 16.1 mph - N/A   Overcast
4:56 AM 19.4 °F 6.0 °F 12.2 °F 74% 29.49 in 9.0 mi WNW 13.8 mph - N/A   Overcast
5:16 AM 19.4 °F 4.5 °F 12.2 °F 74% 29.49 in 3.0 mi WNW 17.3 mph - N/A   Mostly Cloudy
5:36 AM 19.4 °F 6.6 °F 10.4 °F 68% 29.50 in 5.0 mi WNW 12.7 mph - N/A   Overcast
5:56 AM 19.4 °F 4.1 °F 12.2 °F 74% 29.51 in 2.5 mi West 18.4 mph 21.9 mph N/A   Overcast
6:16 AM 19.4 °F 4.1 °F 12.2 °F 74% 29.52 in 3.0 mi WNW 18.4 mph 21.9 mph N/A   Overcast
6:36 AM 19.4 °F 3.6 °F 10.4 °F 68% 29.53 in 5.0 mi West 19.6 mph - N/A   Overcast
6:56 AM 17.6 °F 0.5 °F 12.2 °F 79% 29.54 in 2.0 mi West 21.9 mph - N/A   Overcast
7:16 AM 17.6 °F 0.9 °F 8.6 °F 68% 29.55 in 1.8 mi West 20.7 mph - N/A   Overcast
7:36 AM 17.6 °F 2.2 °F 8.6 °F 68% 29.55 in 8.0 mi West 17.3 mph - N/A   Overcast
7:56 AM 17.6 °F 2.2 °F 12.2 °F 79% 29.56 in 8.0 mi West 17.3 mph - N/A   Overcast
8:16 AM 15.8 °F -1.5 °F 12.2 °F 86% 29.57 in 4.0 mi WNW 20.7 mph - N/A   Overcast
8:36 AM 15.8 °F -1.1 °F 6.8 °F 68% 29.57 in 4.0 mi WNW 19.6 mph - N/A   Overcast
8:56 AM 15.8 °F -0.6 °F 8.6 °F 73% 29.58 in 8.0 mi West 18.4 mph - N/A   Overcast
9:16 AM 14.0 °F -0.2 °F 6.8 °F 73% 29.59 in 9.0 mi West 12.7 mph - N/A   Overcast
9:36 AM 14.0 °F -3.0 °F 3.2 °F 62% 29.60 in 5.0 mi West 18.4 mph - N/A   Overcast
9:56 AM 14.0 °F -2.0 °F 3.2 °F 62% 29.61 in 5.0 mi WNW 16.1 mph - N/A   Overcast
10:16 AM 12.2 °F -5.3 °F 6.8 °F 79% 29.62 in 2.5 mi WNW 18.4 mph - N/A   Overcast
10:36 AM 12.2 °F -4.3 °F 5.0 °F 73% 29.62 in 8.0 mi WNW 16.1 mph - N/A   Overcast
10:56 AM 12.2 °F -4.3 °F 3.2 °F 67% 29.64 in 2.5 mi West 16.1 mph 24.2 mph N/A   Overcast
11:16 AM 12.2 °F -5.3 °F 3.2 °F 67% 29.64 in 8.0 mi West 18.4 mph - N/A   Overcast
11:36 AM 12.2 °F -4.8 °F 3.2 °F 67% 29.65 in 2.5 mi West 17.3 mph - N/A   Overcast
11:56 AM 12.2 °F -4.3 °F 3.2 °F 67% 29.65 in 3.0 mi West 16.1 mph 20.7 mph N/A   Overcast
12:16 PM 10.4 °F -5.4 °F 1.4 °F 67% 29.65 in 8.0 mi West 13.8 mph - N/A   Overcast
12:36 PM 10.4 °F -6.0 °F 6.8 °F 85% 29.66 in 3.0 mi West 15.0 mph 21.9 mph N/A   Overcast
12:56 PM 10.4 °F -4.8 °F 1.4 °F 67% 29.66 in 8.0 mi West 12.7 mph - N/A   Overcast
1:16 PM 10.4 °F -7.7 °F -0.4 °F 62% 29.65 in 1.5 mi West 18.4 mph 24.2 mph N/A   Overcast
1:36 PM 10.4 °F -8.2 °F 3.2 °F 73% 29.65 in 5.0 mi WNW 19.6 mph - N/A   Overcast
1:56 PM 10.4 °F -6.0 °F 1.4 °F 67% 29.65 in 8.0 mi WNW 15.0 mph - N/A   Overcast
2:16 PM 10.4 °F -6.0 °F 1.4 °F 67% 29.65 in 10.0 mi West 15.0 mph - N/A   Overcast
2:36 PM 10.4 °F -5.4 °F 1.4 °F 67% 29.66 in 2.0 mi WNW 13.8 mph - N/A   Overcast
2:56 PM 10.4 °F -7.7 °F 1.4 °F 67% 29.66 in 2.5 mi WNW 18.4 mph 24.2 mph N/A   Overcast
3:16 PM 10.4 °F -6.6 °F 3.2 °F 73% 29.66 in 1.8 mi West 16.1 mph 19.6 mph N/A   Overcast
3:36 PM 10.4 °F -6.6 °F 5.0 °F 79% 29.66 in 2.5 mi WNW 16.1 mph - N/A   Overcast
3:56 PM 10.4 °F -7.7 °F 1.4 °F 67% 29.66 in 8.0 mi WNW 18.4 mph - N/A   Overcast
4:16 PM 10.4 °F -6.0 °F -0.4 °F 62% 29.66 in 9.0 mi West 15.0 mph 23.0 mph N/A   Overcast
4:36 PM 8.6 °F -7.0 °F -2.2 °F 62% 29.67 in 10.0 mi WNW 12.7 mph - N/A   Overcast
4:56 PM 8.6 °F -9.5 °F -0.4 °F 67% 29.67 in 10.0 mi NW 17.3 mph - N/A   Overcast
5:16 PM 8.6 °F -6.3 °F -0.4 °F 67% 29.67 in 10.0 mi WNW 11.5 mph - N/A   Overcast
5:36 PM 8.6 °F -8.9 °F 1.4 °F 73% 29.67 in 3.0 mi WNW 16.1 mph 21.9 mph N/A   Overcast
5:56 PM 8.6 °F -8.9 °F 1.4 °F 73% 29.67 in 3.0 mi WNW 16.1 mph - N/A   Overcast
6:16 PM 8.6 °F -8.9 °F -2.2 °F 62% 29.67 in 10.0 mi NW 16.1 mph - N/A   Overcast
6:36 PM 8.6 °F -8.9 °F 1.4 °F 73% 29.68 in 10.0 mi NW 16.1 mph - N/A   Overcast
6:56 PM 8.6 °F -8.3 °F 1.4 °F 73% 29.68 in 10.0 mi WNW 15.0 mph - N/A   Overcast
7:16 PM 8.6 °F -8.3 °F -2.2 °F 62% 29.68 in 10.0 mi NW 15.0 mph 20.7 mph N/A   Overcast
7:36 PM 8.6 °F -7.7 °F -0.4 °F 67% 29.67 in 10.0 mi WNW 13.8 mph - N/A   Overcast
7:56 PM 8.6 °F -7.0 °F -5.8 °F 52% 29.68 in 10.0 mi WNW 12.7 mph - N/A   Overcast
8:16 PM 8.6 °F -7.0 °F 1.4 °F 73% 29.68 in 7.0 mi NW 12.7 mph - N/A   Overcast
8:36 PM 8.6 °F -8.3 °F -0.4 °F 67% 29.67 in 10.0 mi West 15.0 mph - N/A   Overcast
8:56 PM 8.6 °F -3.7 °F -2.2 °F 62% 29.68 in 9.0 mi WNW 8.1 mph - N/A   Overcast
9:16 PM 8.6 °F -8.9 °F -0.4 °F 67% 29.68 in 10.0 mi NW 16.1 mph - N/A   Overcast
9:36 PM 8.6 °F -4.7 °F -2.2 °F 62% 29.68 in 10.0 mi NNW 9.2 mph - N/A   Overcast
9:56 PM 8.6 °F -5.5 °F -0.4 °F 67% 29.68 in 10.0 mi WNW 10.4 mph - N/A   Overcast
10:16 PM 8.6 °F -5.5 °F -0.4 °F 67% 29.69 in 10.0 mi NNW 10.4 mph - N/A   Overcast
10:36 PM 8.6 °F -7.0 °F -0.4 °F 67% 29.69 in 10.0 mi NNW 12.7 mph - N/A   Overcast
10:56 PM 8.6 °F -3.7 °F -4.0 °F 57% 29.69 in 10.0 mi NW 8.1 mph - N/A   Overcast
11:16 PM 8.6 °F -6.3 °F 1.4 °F 73% 29.69 in 10.0 mi NW 11.5 mph - N/A   Overcast
11:36 PM 8.6 °F -5.5 °F 1.4 °F 73% 29.69 in 10.0 mi WNW 10.4 mph - N/A   Overcast
11:56 PM 8.6 °F -5.5 °F -4.0 °F 57% 29.68 in 10.0 mi NW 10.4 mph - N/A   Overcast